VA7IM-13 Weather Reports


time (UTC)temp
C
wind
direction
speed
KPH
gust
KPH
rain 1hr
cm
rain 24hr
cm
rain mn
cm
humidity
%
barometer
mb
20260504190158 26 225 8.0 9.7 0.00 0.00 0.00
20260504185658 27 225 4.8 6.4 0.00 0.00 0.00
20260504185157 26 225 6.4 9.7 0.00 0.00 0.00
20260504184657 25 203 11.3 17.7 0.00 0.00 0.00
20260504184158 26 270 6.4 11.3 0.00 0.00 0.00
20260504183658 25 225 6.4 6.4 0.00 0.00 0.00
20260504183157 27 203 4.8 11.3 0.00 0.00 0.00
20260504182657 25 293 9.7 12.9 0.00 0.00 0.00
20260504182158 26 270 6.4 9.7 0.00 0.00 0.00
20260504181658 26 270 3.2 6.4 0.00 0.00 0.00
20260504181157 25 203 8.0 14.5 0.00 0.00 0.00
20260504180658 26 293 6.4 9.7 0.00 0.00 0.00
20260504180159 25 203 6.4 9.7 0.00 0.00 0.00
20260504175659 25 45 1.6 6.4 0.00 0.00 0.00
20260504175159 -17 6.4 11.3 0.00 0.00 0.00
20260504174658 25 113 6.4 9.7 0.00 0.00 0.00
20260504174157 25 90 0.0 3.2 0.00 0.00 0.00
20260504173157 24 248 4.8 6.4 0.00 0.00 0.00
20260504172658 23 293 4.8 8.0 0.00 0.00 0.00
20260504172159 23 270 8.0 11.3 0.00 0.00 0.00
20260504171658 24 203 3.2 4.8 0.00 0.00 0.00
20260504171157 24 270 6.4 6.4 0.00 0.00 0.00
20260504170658 23 203 4.8 6.4 0.00 0.00 0.00
20260504170159 22 113 6.4 6.4 0.00 0.00 0.00
20260504160159 20 45 8.0 9.7 0.00 0.00 0.00
20260504150658 20 135 0.0 0.0 0.00 0.00 0.00
20260504150157 20 180 0.0 0.0 0.00 0.00 0.00
20260504141157 -17 0.0 0.0 0.00 0.00 0.00
20260504140658 -17 0.0 0.0 0.00 0.00 0.00
20260504140159 12 158 0.0 0.0 0.00 0.00 0.00
20260504130657 11 158 0.0 0.0 0.00 0.00 0.00
20260504100158 13 158 0.0 0.0 0.00 0.00 0.00
20260504081659 15 180 0.0 0.0 0.00 0.00 0.00
20260504081158 -17 0.0 0.0 0.00 0.00 0.00
20260504080657 15 180 0.0 0.0 0.00 0.00 0.00
20260504080158 15 158 0.0 0.0 0.00 0.00 0.00
20260504070159 -17 0.0 0.0 0.00 0.00 0.00
20260504060158 17 158 0.0 0.0 0.00 0.00 0.00
20260504050659 18 293 0.0 0.0 0.00 0.00 0.00
20260504045658 18 180 0.0 0.0 0.00 0.00 0.00
20260504045157 19 180 0.0 0.0 0.00 0.00 0.00
20260504044659 19 180 0.0 0.0 0.00 0.00 0.00
20260504044159 20 180 0.0 0.0 0.00 0.00 0.00
20260504043659 20 158 0.0 0.0 0.00 0.00 0.00
20260504043158 20 158 0.0 0.0 0.00 0.00 0.00
20260504042702 20 135 0.0 0.0 0.00 0.00 0.00
20260504042158 20 158 0.0 0.0 0.00 0.00 0.00
20260504041657 20 180 0.0 0.0 0.00 0.00 0.00
20260504041158 20 180 0.0 0.0 0.00 0.00 0.00
20260504040659 21 158 0.0 0.0 0.00 0.00 0.00
20260504040158 21 180 0.0 0.0 0.00 0.00 0.00
20260504035657 21 180 0.0 0.0 0.00 0.00 0.00
20260504035158 21 90 0.0 0.0 0.00 0.00 0.00
20260504034659 22 45 0.0 0.0 0.00 0.00 0.00
20260504034158 22 180 0.0 0.0 0.00 0.00 0.00
20260504033657 23 90 0.0 0.0 0.00 0.00 0.00
20260504033158 23 158 0.0 0.0 0.00 0.00 0.00
20260504032659 23 113 0.0 0.0 0.00 0.00 0.00
20260504032159 -17 0.0 0.0 0.00 0.00 0.00
20260504031659 -17 0.0 0.0 0.00 0.00 0.00
20260504031158 24 158 1.6 3.2 0.00 0.00 0.00
20260504030657 24 270 3.2 4.8 0.00 0.00 0.00
20260504030159 25 0.0 0.0 0.00 0.00 0.00
20260504022659 -17 0.0 0.0 0.00 0.00 0.00
20260504022159 -17 225 4.8 4.8 0.00 0.00 0.00
20260504015657 -17 180 6.4 6.4 0.00 0.00 0.00
20260504013659 -17 248 11.3 11.3 0.00 0.00 0.00
20260504005158 -17 6.4 6.4 0.00 0.00 0.00
20260504004159 -17 8.0 8.0 0.00 0.00 0.00
20260504003159 -17 90 6.4 6.4 0.00 0.00 0.00
20260504001159 -17 180 8.0 8.0 0.00 0.00 0.00
20260504000158 -17 9.7 9.7 0.00 0.00 0.00
20260503235658 30 23 8.0 11.3 0.00 0.00 0.00
20260503235159 31 225 4.8 6.4 0.00 0.00 0.00
20260503234658 30 45 4.8 9.7 0.00 0.00 0.00
20260503234157 30 23 8.0 12.9 0.00 0.00 0.00
20260503233657 30 0 6.4 8.0 0.00 0.00 0.00
20260503233158 30 158 6.4 6.4 0.00 0.00 0.00
20260503232659 30 225 4.8 6.4 0.00 0.00 0.00
20260503232158 -17 3.2 6.4 0.00 0.00 0.00
20260503231657 30 338 6.4 11.3 0.00 0.00 0.00
20260503231157 30 23 11.3 16.1 0.00 0.00 0.00
20260503230658 30 45 4.8 6.4 0.00 0.00 0.00
20260503230158 31 270 6.4 9.7 0.00 0.00 0.00
20260503225657 -17 6.4 6.4 0.00 0.00 0.00
20260503225157 28 225 8.0 12.9 0.00 0.00 0.00
20260503224658 29 248 6.4 9.7 0.00 0.00 0.00
20260503224159 30 248 8.0 9.7 0.00 0.00 0.00
20260503223658 30 270 6.4 12.9 0.00 0.00 0.00
20260503223157 30 248 8.0 9.7 0.00 0.00 0.00
20260503222658 -17 8.0 9.7 0.00 0.00 0.00
20260503222159 30 225 4.8 9.7 0.00 0.00 0.00
20260503221657 30 270 14.5 14.5 0.00 0.00 0.00
20260503221157 29 225 8.0 9.7 0.00 0.00 0.00
20260503220657 30 270 8.0 14.5 0.00 0.00 0.00
20260503220159 30 113 6.4 6.4 0.00 0.00 0.00
20260503215658 30 203 4.8 6.4 0.00 0.00 0.00
20260503215157 -17 8.0 12.9 0.00 0.00 0.00
20260503214657 30 248 4.8 6.4 0.00 0.00 0.00
20260503214157 28 158 6.4 9.7 0.00 0.00 0.00
20260503213658 29 45 4.8 6.4 0.00 0.00 0.00
20260503213159 29 338 4.8 8.0 0.00 0.00 0.00
20260503212659 28 270 3.2 6.4 0.00 0.00 0.00
20260503212158 28 90 1.6 4.8 0.00 0.00 0.00
20260503211657 28 90 9.7 12.9 0.00 0.00 0.00
20260503211157 28 225 6.4 6.4 0.00 0.00 0.00
20260503210659 28 225 8.0 9.7 0.00 0.00 0.00
20260503210159 27 203 9.7 9.7 0.00 0.00 0.00
20260503205159 27 248 6.4 11.3 0.00 0.00 0.00
20260503204659 28 315 9.7 11.3 0.00 0.00 0.00
20260503204158 28 8.0 20.9 0.00 0.00 0.00
20260503203658 28 315 8.0 11.3 0.00 0.00 0.00
20260503203159 28 0 4.8 6.4 0.00 0.00 0.00
20260503202658 27 113 3.2 6.4 0.00 0.00 0.00
20260503202158 28 225 4.8 6.4 0.00 0.00 0.00
20260503201657 -17 4.8 6.4 0.00 0.00 0.00
20260503201158 27 0 6.4 11.3 0.00 0.00 0.00
20260503200659 27 225 1.6 4.8 0.00 0.00 0.00
20260503200158 27 23 8.0 11.3 0.00 0.00 0.00
20260503195658 26 68 4.8 6.4 0.00 0.00 0.00
20260503195158 27 23 8.0 11.3 0.00 0.00 0.00
20260503194658 27 113 1.6 4.8 0.00 0.00 0.00
20260503194159 27 45 4.8 6.4 0.00 0.00 0.00
20260503193659 27 113 4.8 6.4 0.00 0.00 0.00
20260503193158 -17 1.6 4.8 0.00 0.00 0.00
20260503192657 27 90 3.2 6.4 0.00 0.00 0.00
20260503192158 26 225 1.6 6.4 0.00 0.00 0.00
20260503191658 26 203 1.6 4.8 0.00 0.00 0.00
20260503191159 26 68 3.2 4.8 0.00 0.00 0.00
20260503190659 25 6.4 12.9 0.00 0.00 0.00